Вернуться в каталог

COSMOS 2251 DEB

АктивенLEO
NORAD 33761·DEBRIS·🇷🇺 Russia

Запущен Jun 16, 1993 с Plesetsk Cosmodrome

Loading…

Ближайшие Пролёты (ближайшие 24 часа)

TLE

СвежийSource: Space-Track

Эпоха: Sep 13, 2026, 21:39 UTC

1 33761U 93036J   26256.90227981  .00000655  00000-0  20232-3 0  9998
2 33761  74.0337 101.3246 0022417 119.2747 348.3831 14.43179230922030

Отслеживайте COSMOS 2251 DEB в реальном времени с AllMySat

Download on the App Store